Regional Weather Roundup
Issued by NWS

Home | Current Version | Previous Version | Text Only | Print | Product List | Glossary On
Versions: 1 2 3 4 5 6 7 8 9 10 11 12 13 14 15 16 17 18 19 20 21 22 23 24 25 26 27 28 29 30 31 32 33 34 35 36 37 38 39 40 41 42 43 44 45 46 47 48 49 50
000
ASUS44 KOUN 272110
RWROK

WEATHER ROUNDUP FOR OKLAHOMA
NATIONAL WEATHER SERVICE NORMAN OK
400 PM CDT WED MAY 27 2015

NOTE: "FAIR" INDICATES FEW OR NO CLOUDS BELOW 12,000 FEET WITH NO
      SIGNIFICANT WEATHER AND/OR OBSTRUCTIONS TO VISIBILITY.

OKZ001>007-009>012-014-015-017-272200-
NORTHWEST OKLAHOMA AND THE PANHANDLE

CITY           SKY/WX    TMP DP  RH WIND       PRES   REMARKS
GAGE           SUNNY     78  64  61 SE13      30.00F
GUYMON         SUNNY     87  52  29 SW14      29.96F
ENID/WOODRING  MOSUNNY   88  66  48 E9        30.01F HX  90
$$

OKZ016-021>023-033>039-044-045-272200-
SOUTHWEST OKLAHOMA

CITY           SKY/WX    TMP DP  RH WIND       PRES   REMARKS
LAWTON/REGL    CLOUDY    81  68  64 E12       30.03F
LAWTON/FT SILL PTSUNNY   80  70  69 SE9       30.03F
FREDERICK      PTSUNNY   84  70  62 SE12      30.00F
CLINTON        PTSUNNY   84  68  58 SE15G22   30.03F
HOBART         PTSUNNY   84  70  62 S15       30.02F
ALTUS AFB      MOSUNNY   83  72  69 SE14      30.00F
$$

OKZ018>020-024>031-272200-
CENTRAL OKLAHOMA

CITY           SKY/WX    TMP DP  RH WIND       PRES   REMARKS
OKLAHOMA CITY  PTSUNNY   80  66  62 SE16      30.06F
OKC/WILEY POST CLOUDY    79  65  62 SE14G21   30.06F
OKC/TINKER AFB PTSUNNY   79  67  65 S15       30.06F
STILLWATER     MOSUNNY   83  67  58 SE9       30.04S
GUTHRIE        SUNNY     82  66  58 S14       30.05S
$$

OKZ008-013-054>072-272200-
NORTHEAST OKLAHOMA

CITY           SKY/WX    TMP DP  RH WIND       PRES   REMARKS
TULSA          MOSUNNY   85  65  51 SE9       30.03F
TULSA/JONES    MOSUNNY   86  64  47 S10       30.04F HAZE
PONCA CITY     MOSUNNY   83  66  56 E10       30.03F
BARTLESVILLE   MOSUNNY   84  70  62 VRB6      30.06F
MUSKOGEE       PTSUNNY   83  63  50 S15       30.08R
$$

OKZ032-040>043-046>053-073>077-272200-
SOUTH CENTRAL/SOUTHEAST OKLAHOMA

CITY           SKY/WX    TMP DP  RH WIND       PRES   REMARKS
ARDMORE/DWNTWN CLOUDY    81  63  54 CALM      30.07S
MCALESTER      LGT RAIN  73  68  84 CALM      30.10R
$$



USA.gov is the U.S. government's official web portal to all federal, state and local government web resources and services.